Weather History for LLBG - December, 2011

Change the Weather History Date:

Tuesday, December 27, 2011

  Actual Average Record
Temperature  
Mean Temperature 56 °F -  
Max Temperature 65 °F 61 °F 82 °F (1996)
Min Temperature 46 °F 47 °F 43 °F (2013)
Degree Days  
Heating Degree Days 10    
Growing Degree Days 6 (Base 50)    
Moisture  
Dew Point 42 °F    
Average Humidity 63    
Maximum Humidity 87    
Minimum Humidity 27    
Precipitation  
Precipitation 0.00 in - - ()
Sea Level Pressure  
Sea Level Pressure 30.31 in    
Wind  
Wind Speed 4 mph ()    
Max Wind Speed 12 mph    
Max Gust Speed -    
Visibility 6.1 miles    
Events      
Averages and records for this station are not official NWS values.
T = Trace of Precipitation, MM = Missing Value Source: Averaged Metar Reports

Daily Weather History Graph

Daily Weather History Graph

Search for Another Location

Airport or City:

Trip Planner

Search our weather history database for the weather conditions in past years. The results will help you decide how hot, cold, wet, or windy it might be!

Date:

Astronomy

Dec. 27, 2011 Rise Set
Actual Time 6:39 AM IST 4:43 PM IST
Civil Twilight 6:12 AM IST 5:10 PM IST
Nautical Twilight 5:41 AM IST 5:40 PM IST
Astronomical Twilight 5:11 AM IST 6:10 PM IST
Moon 8:31 AM IST (12/27) 7:44 PM IST (12/27)
Length of Visible Light 10h 57m
Length of Day
10h 03m
Waxing Crescent, 9% of the Moon is Illuminated
Dec 27
Waxing Crescent
Jan 1
First Quarter
Jan 9
Full
Jan 16
Last Quarter
Jan 23
New

Hourly Weather History & Observations

Time (IST) Temp. Dew Point Humidity Pressure Visibility Wind Dir Wind Speed Gust Speed Precip Events Conditions
12:50 AM 51.8 °F 46.4 °F 82% 30.33 in 6.2 mi Variable 2.3 mph - N/A   Mostly Cloudy
1:50 AM 51.8 °F 46.4 °F 82% 30.33 in - Variable 2.3 mph - N/A   Clear
2:00 AM 51 °F 46 °F 77% 30.34 in 6 mi 2.3 mph - -  
2:50 AM 50.0 °F 44.6 °F 82% 30.33 in - NE 2.3 mph - N/A   Clear
3:50 AM 48.2 °F 44.6 °F 87% 30.30 in - ENE 2.3 mph - N/A   Clear
4:50 AM 46.4 °F 42.8 °F 87% 30.30 in - ENE 2.3 mph - N/A   Clear
5:50 AM 46.4 °F 42.8 °F 87% 30.30 in - ESE 1.2 mph - N/A   Clear
6:50 AM 48.2 °F 41.0 °F 76% 30.33 in 6.2 mi NNE 2.3 mph - N/A   Partly Cloudy
7:50 AM 50.0 °F 42.8 °F 76% 30.33 in 6.2 mi Variable 1.2 mph - N/A   Scattered Clouds
8:00 AM 50 °F 42 °F 67% 30.36 in 6 mi 1.2 mph - -   Partly Cloudy
8:50 AM 55.4 °F 44.6 °F 67% 30.36 in 6.2 mi Variable 1.2 mph - N/A   Partly Cloudy
9:50 AM 60.8 °F 46.4 °F 59% 30.36 in - NE 3.5 mph - N/A   Clear
10:50 AM 62.6 °F 42.8 °F 48% 30.33 in - North 8.1 mph - N/A   Clear
11:50 AM 64.4 °F 41.0 °F 42% 30.30 in 6.2 mi North 8.1 mph - N/A   Scattered Clouds
12:50 PM 64.4 °F 41.0 °F 42% 30.27 in 6.2 mi NNE 9.2 mph - N/A   Scattered Clouds
1:50 PM 64.4 °F 39.2 °F 40% 30.27 in - North 8.1 mph - N/A   Clear
2:00 PM 64 °F 38 °F 27% 30.29 in 6 mi North 8.1 mph - -  
2:50 PM 64.4 °F 39.2 °F 40% 30.27 in - North 10.4 mph - N/A   Clear
3:50 PM 62.6 °F 39.2 °F 42% 30.27 in - North 11.5 mph - N/A   Clear
4:50 PM 60.8 °F 42.8 °F 52% 30.30 in - North 6.9 mph - N/A   Clear
5:50 PM 59.0 °F 41.0 °F 51% 30.30 in - NNW 6.9 mph - N/A   Clear
6:50 PM 55.4 °F 41.0 °F 58% 30.30 in - North 6.9 mph - N/A   Clear
7:50 PM 53.6 °F 41.0 °F 62% 30.30 in - NNE 5.8 mph - N/A   Clear
8:00 PM 53 °F 41 °F 54% 30.32 in 6 mi NNE 5.8 mph - -  
8:50 PM 51.8 °F 42.8 °F 71% 30.30 in - ENE 4.6 mph - N/A   Clear
9:50 PM 51.8 °F 42.8 °F 71% 30.30 in - NNE 3.5 mph - N/A   Clear
10:50 PM 50.0 °F 42.8 °F 76% 30.30 in - North 4.6 mph - N/A   Clear
11:50 PM 50.0 °F 41.0 °F 71% 30.27 in - NNE 5.8 mph - N/A   Clear